Simultaneous Nadir Overpasses (SNOs) Predictions

Prediction of SNOs between GOES-15 and METOP-B Satellite Orbit:

Table of predicted SNOs for the next 14.0 days since TLE Epoch: 3/14/2025
Index Date Time (GOES-15) GOES-15 Lat,Lon METOP-B Lat,Lon Distance(km) Time Diff (sec)
1 03/15/2025 04:57:58 -0.04, 61.30 -0.55, 63.51 252.43 80
2 03/16/2025 17:17:02 0.05, 61.26 -0.46, 58.87 270.87 80
3 03/17/2025 16:53:45 0.04, 61.26 0.62, 63.86 296.03 80
4 03/19/2025 05:12:40 -0.05, 61.30 0.42, 59.26 232.46 80
5 03/20/2025 04:54:44 -0.05, 61.30 -0.73, 64.23 334.52 80
6 03/21/2025 17:13:47 0.07, 61.26 -0.32, 59.60 189.51 80
7 03/22/2025 16:50:30 0.06, 61.27 0.77, 64.58 376.62 80
8 03/24/2025 05:09:25 -0.07, 61.33 0.25, 59.99 153.45 80
9 03/25/2025 04:51:27 -0.07, 61.33 -0.85, 64.97 413.03 80
10 03/26/2025 17:10:32 0.08, 61.30 -0.12, 60.32 111.00 80
11 03/27/2025 16:47:13 0.07, 61.31 0.93, 65.31 454.98 80
